Location: Boiro
(42.6475°N, 8.8834°W)
Time: 06:01:51
(UTC+01:00)

Transit 4A - Pass Details

Date: 30 November 2021
Orbit: 864 x 980 km, 66.8° (Epoch: 17 January)

Event Time Altitude Azimuth Distance (km) Brightness Sun altitude
Rises 20:27:01 0° 175° (S) 3,437 10.9 -25.8°
Reaches altitude 10° 20:29:49 10° 163° (SSE) 2,513 10.0 -26.3°
Enters shadow 20:29:50 10° 163° (SSE) 2,511 10.0 -26.3°
